Flag for Poland Past Weather in Dąbrowa Górnicza, Poland — Yesterday and Last 2 Weeks

Now
70 °F

Passing clouds.


Feels Like: 70 °F
Forecast: 63 / 74 °F
Wind: 3 mph from Southeast

Location: Katowice Airport

Current Time: Jul 27, 2016 at 11:14:28 PM

Latest Report: Jul 27, 2016 at 10:30 PM


Visibility: N/A

Pressure: 29.95 "Hg

Humidity: 78%

Dew Point: 63 °F

Location of Dąbrowa GórniczaLocation

Past Weather in Dąbrowa Górnicza — Graph

°F

Dąbrowa Górnicza Temperature Yesterday

Maximum temperature yesterday: 81 °F (at 3:00 PM)
Minimum temperature yesterday: 64 °F (at 12:00 AM)
Average temperature yesterday: 70 °F

High & Low Weather Summary for the Past Weeks

 TemperatureHumidityPressure
High82 °F (Jul 27, 5:30 PM)100% (Jul 13, 1:00 AM)30.21 "Hg (Jul 13, 1:00 AM)
Low46 °F (Jul 21, 4:00 AM)36% (Jul 22, 6:30 PM)29.59 "Hg (Jul 14, 10:00 AM)
Average64 °F80%30.03 "Hg
* Reported Jul 12 10:00 PM — Jul 27 10:00 PM, Dąbrowa Górnicza, Weather by CustomWeather, © 2016

Note: Actual official high and low records may vary slightly from our data, if they occured in-between our weather recording intervals... More about our weather records

Advertising

Dąbrowa Górnicza Weather History for the Previous 24 Hours

Scroll right to see more
 ConditionsComfort  
Time TempWeatherWind HumidityBarometerVisibility
10:00 PM
Wed, Jul 27
68 °FPassing clouds.3 mph83%29.95 "HgN/A
9:30 PM68 °FScattered clouds.5 mph83%29.98 "HgN/A
9:00 PM70 °FThundershowers. Partly sunny.6 mph78%29.98 "HgN/A
8:30 PM70 °FThundershowers. Partly sunny.8 mph83%29.95 "HgN/A
8:00 PM73 °FThundershowers. Scattered clouds.10 mph69%29.95 "HgN/A
7:30 PM75 °FScattered clouds.14 mph69%29.95 "HgN/A
7:00 PM79 °FThundershowers. Passing clouds.5 mph65%29.92 "HgN/A
6:30 PM81 °FPassing clouds.5 mph58%29.95 "HgN/A
6:00 PM81 °FPassing clouds.6 mph62%29.95 "HgN/A
5:30 PM82 °FPassing clouds.3 mph55%29.95 "HgN/A
5:00 PM81 °FPassing clouds.5 mph58%29.95 "HgN/A
4:30 PM81 °FPassing clouds.2 mph58%29.98 "HgN/A
4:00 PM81 °FScattered clouds.5 mph58%29.98 "HgN/A
3:30 PM81 °FSunny.3 mph62%29.98 "Hg10 mi
3:00 PM81 °FSunny.5 mph58%29.98 "Hg10 mi
2:30 PM79 °FPassing clouds.6 mph65%30.01 "HgN/A
2:00 PM77 °FPassing clouds.6 mph61%30.01 "HgN/A
1:30 PM75 °FPassing clouds.6 mph65%30.04 "HgN/A
1:00 PM73 °FPassing clouds.7 mph69%30.04 "HgN/A
12:30 PM73 °FPassing clouds.8 mph69%30.04 "HgN/A
12:00 PM73 °FPassing clouds.8 mph65%30.07 "HgN/A
11:30 AM72 °FPassing clouds.8 mph78%30.07 "HgN/A
11:00 AM72 °FPassing clouds.7 mph83%30.07 "HgN/A
10:30 AM73 °FPassing clouds.8 mph78%30.07 "HgN/A
10:00 AM72 °FPassing clouds.8 mph83%30.07 "HgN/A
9:30 AM70 °FPassing clouds.3 mph88%30.07 "HgN/A
9:00 AM70 °FSunny.2 mph83%30.07 "Hg10 mi
8:30 AM68 °FPassing clouds.1 mph88%30.07 "HgN/A
8:00 AM66 °FScattered clouds.1 mph94%30.07 "Hg5 mi
7:30 AM66 °FBroken clouds.2 mph94%30.07 "Hg5 mi
7:00 AM64 °FScattered clouds.2 mph94%30.07 "HgN/A
6:30 AM64 °FSunny.1 mph94%30.07 "Hg10 mi
6:00 AM63 °FClear.2 mph100%30.07 "Hg10 mi
5:30 AM61 °FFog.1 mph100%30.07 "Hg4 mi
5:00 AM63 °FFog.1 mph94%30.07 "Hg4 mi
4:30 AM63 °FFog.1 mph100%30.04 "Hg4 mi
4:00 AM63 °FClear.2 mph100%30.07 "Hg10 mi
3:30 AM63 °FFog.2 mph94%30.07 "Hg3 mi
3:00 AM63 °FClear.1 mph100%30.07 "Hg4 mi
2:30 AM64 °FClear.2 mph94%30.07 "Hg4 mi
2:00 AM64 °FClear.1 mph94%30.07 "Hg10 mi
1:30 AM64 °FClear.1 mph100%30.04 "Hg10 mi
1:00 AM64 °FClear.5 mph94%30.07 "Hg10 mi
12:30 AM66 °FClear.3 mph94%30.07 "Hg10 mi
12:00 AM66 °FSprinkles. Passing clouds.7 mph94%30.07 "HgN/A
11:30 PM
Tue, Jul 26
66 °FPassing clouds.2 mph94%30.07 "HgN/A
11:00 PM68 °FThundershowers. Passing clouds.8 mph83%30.07 "HgN/A
Weather by CustomWeather, © 2016

See weather overviewHow to use our weather pages